| time (UTC) | temp C | wind direction | speed KPH | gust KPH | rain 1hr cm | rain 24hr cm | rain mn cm | humidity % | barometer mb |
| 20260502194555 | 12 | 352 | 11.3 | 20.9 | 0.00 | 0.00 | 0.00 | 46 | 1015.4 |
| 20260502193105 | 12 | 316 | 6.4 | 22.5 | 0.00 | 0.00 | 0.00 | 41 | 1015.5 |
| 20260502191607 | 12 | 295 | 11.3 | 17.7 | 0.00 | 0.00 | 0.00 | 43 | 1015.5 |
| 20260502190057 | 11 | 4 | 9.7 | 19.3 | 0.00 | 0.00 | 0.00 | 44 | 1015.7 |
| 20260502184605 | 11 | 313 | 8.0 | 19.3 | 0.00 | 0.00 | 0.00 | 44 | 1016.0 |
| 20260502183100 | 11 | 343 | 11.3 | 19.3 | 0.00 | 0.00 | 0.00 | 43 | 1016.0 |
| 20260502181604 | 11 | 3 | 6.4 | 20.9 | 0.00 | 0.00 | 0.00 | 45 | 1016.0 |
| 20260502180118 | 11 | 325 | 9.7 | 22.5 | 0.00 | 0.00 | 0.00 | 44 | 1016.1 |
| 20260502170109 | 11 | 293 | 6.4 | 20.9 | 0.00 | 0.00 | 0.00 | 45 | 1016.4 |
| 20260502163059 | 11 | 18 | 6.4 | 16.1 | 0.00 | 0.00 | 0.00 | 47 | 1016.5 |
| 20260502161557 | 11 | 345 | 8.0 | 17.7 | 0.00 | 0.00 | 0.00 | 47 | 1016.6 |
| 20260502151606 | 11 | 274 | 3.2 | 16.1 | 0.00 | 0.00 | 0.00 | 51 | 1016.8 |
| 20260502140103 | 8 | 316 | 6.4 | 14.5 | 0.00 | 0.00 | 0.00 | 82 | 1017.0 |
| 20260502123100 | 5 | 195 | 0.0 | 3.2 | 0.00 | 0.00 | 0.00 | 92 | 1016.9 |
| 20260502121558 | 4 | 256 | 1.6 | 4.8 | 0.00 | 0.00 | 0.00 | 92 | 1016.8 |
| 20260502120105 | 3 | 218 | 1.6 | 3.2 | 0.00 | 0.00 | 0.00 | 92 | 1017.1 |
| 20260502114558 | 2 | 0 | 0.0 | 0.0 | 0.00 | 0.00 | 0.00 | 91 | 1016.9 |
| 20260502113057 | 2 | 0 | 0.0 | 3.2 | 0.00 | 0.00 | 0.00 | 91 | 1017.0 |
| 20260502111611 | 2 | 202 | 1.6 | 4.8 | 0.00 | 0.00 | 0.00 | 91 | 1016.6 |
| 20260502110056 | 2 | 0 | 0.0 | 0.0 | 0.00 | 0.00 | 0.00 | 90 | 1016.6 |
| 20260502104557 | 2 | 0 | 0.0 | 0.0 | 0.00 | 0.00 | 0.00 | 90 | 1016.6 |
| 20260502103109 | 2 | 0 | 0.0 | 0.0 | 0.00 | 0.00 | 0.00 | 90 | 1016.3 |
| 20260502101610 | 2 | 228 | 0.0 | 3.2 | 0.00 | 0.00 | 0.00 | 90 | 1016.9 |
| 20260502070056 | 5 | 0 | 1.6 | 4.8 | 0.00 | 0.00 | 0.00 | 83 | 1016.5 |
| 20260502064601 | 5 | 0 | 0.0 | 0.0 | 0.00 | 0.00 | 0.00 | 83 | 1016.4 |
| 20260502063102 | 5 | 0 | 0.0 | 1.6 | 0.00 | 0.00 | 0.00 | 81 | 1016.6 |
| 20260502061558 | 6 | 0 | 0.0 | 0.0 | 0.00 | 0.00 | 0.00 | 81 | 1016.9 |
| 20260502060058 | 6 | 0 | 0.0 | 3.2 | 0.00 | 0.00 | 0.00 | 79 | 1017.1 |
| 20260502054602 | 6 | 0 | 1.6 | 4.8 | 0.00 | 0.00 | 0.00 | 78 | 1016.9 |
| 20260502053057 | 7 | 0 | 0.0 | 0.0 | 0.00 | 0.00 | 0.00 | 77 | 1017.2 |
| 20260502051556 | 7 | 0 | 0.0 | 3.2 | 0.00 | 0.00 | 0.00 | 75 | 1017.2 |
| 20260502050055 | 7 | 0 | 0.0 | 4.8 | 0.00 | 0.00 | 0.00 | 73 | 1017.2 |
| 20260502044557 | 8 | 0 | 0.0 | 0.0 | 0.00 | 0.00 | 0.00 | 70 | 1017.4 |
| 20260502043107 | 8 | 0 | 0.0 | 1.6 | 0.00 | 0.00 | 0.00 | 69 | 1017.2 |
| 20260502041557 | 8 | 0 | 0.0 | 0.0 | 0.00 | 0.00 | 0.00 | 68 | 1017.3 |
| 20260502040057 | 8 | 0 | 0.0 | 1.6 | 0.00 | 0.00 | 0.00 | 67 | 1017.1 |
| 20260502034601 | 8 | 0 | 0.0 | 4.8 | 0.00 | 0.00 | 0.00 | 66 | 1017.0 |
| 20260502033058 | 9 | 339 | 0.0 | 4.8 | 0.00 | 0.00 | 0.00 | 65 | 1017.1 |
| 20260502031555 | 9 | 350 | 3.2 | 8.0 | 0.00 | 0.00 | 0.00 | 64 | 1017.3 |
| 20260502030100 | 9 | 25 | 1.6 | 6.4 | 0.00 | 0.00 | 0.00 | 63 | 1017.2 |
| 20260502024557 | 10 | 359 | 4.8 | 9.7 | 0.00 | 0.00 | 0.00 | 62 | 1017.2 |
| 20260502023057 | 10 | 342 | 3.2 | 14.5 | 0.00 | 0.00 | 0.00 | 62 | 1017.2 |
| 20260502021556 | 10 | 339 | 3.2 | 14.5 | 0.00 | 0.00 | 0.00 | 61 | 1017.0 |
| 20260502020056 | 10 | 2 | 4.8 | 14.5 | 0.00 | 0.00 | 0.00 | 61 | 1016.6 |
| 20260502014557 | 10 | 39 | 8.0 | 22.5 | 0.00 | 0.00 | 0.00 | 62 | 1016.3 |
| 20260502013056 | 11 | 29 | 8.0 | 27.4 | 0.00 | 0.00 | 0.00 | 61 | 1016.0 |
| 20260502011602 | 11 | 17 | 11.3 | 22.5 | 0.00 | 0.00 | 0.00 | 62 | 1015.6 |
| 20260502010058 | 11 | 345 | 11.3 | 22.5 | 0.00 | 0.00 | 0.00 | 63 | 1015.4 |
| 20260502004609 | 11 | 345 | 11.3 | 20.9 | 0.00 | 0.00 | 0.00 | 62 | 1015.0 |
| 20260502003056 | 12 | 335 | 12.9 | 20.9 | 0.00 | 0.00 | 0.00 | 62 | 1014.2 |
| 20260502001630 | 12 | 325 | 6.4 | 16.1 | 0.00 | 0.00 | 0.00 | 62 | 1014.2 |
| 20260502000115 | 12 | 342 | 12.9 | 17.7 | 0.00 | 0.00 | 0.00 | 63 | 1014.1 |
| 20260501234600 | 12 | 347 | 8.0 | 14.5 | 0.00 | 0.00 | 0.00 | 64 | 1013.7 |
| 20260501233100 | 12 | 335 | 4.8 | 14.5 | 0.00 | 0.00 | 0.00 | 64 | 1013.2 |
| 20260501231601 | 12 | 305 | 6.4 | 17.7 | 0.00 | 0.00 | 0.00 | 63 | 1013.2 |
| 20260501230056 | 12 | 347 | 9.7 | 17.7 | 0.00 | 0.00 | 0.00 | 61 | 1013.3 |
| 20260501224555 | 12 | 317 | 8.0 | 24.1 | 0.00 | 0.00 | 0.00 | 61 | 1013.2 |
| 20260501223109 | 13 | 339 | 12.9 | 24.1 | 0.00 | 0.00 | 0.00 | 59 | 1012.9 |
| 20260501221557 | 13 | 339 | 16.1 | 27.4 | 0.00 | 0.00 | 0.00 | 57 | 1012.9 |
| 20260501220105 | 13 | 308 | 16.1 | 30.6 | 0.00 | 0.00 | 0.00 | 56 | 1012.8 |
| 20260501214559 | 13 | 299 | 17.7 | 30.6 | 0.00 | 0.00 | 0.00 | 58 | 1012.9 |
| 20260501213112 | 14 | 335 | 17.7 | 25.7 | 0.00 | 0.00 | 0.00 | 59 | 1012.6 |
| 20260501211558 | 15 | 14 | 12.9 | 37.0 | 0.00 | 0.00 | 0.00 | 59 | 1012.6 |
| 20260501210121 | 15 | 340 | 9.7 | 29.0 | 0.00 | 0.00 | 0.00 | 58 | 1012.3 |
| 20260501204557 | 15 | 335 | 11.3 | 25.7 | 0.00 | 0.00 | 0.00 | 57 | 1012.2 |
| 20260501203100 | 16 | 352 | 17.7 | 32.2 | 0.00 | 0.00 | 0.00 | 52 | 1012.0 |
| 20260501201644 | 16 | 330 | 19.3 | 33.8 | 0.00 | 0.00 | 0.00 | 50 | 1011.8 |
| 20260501201557 | 16 | 330 | 19.3 | 33.8 | 0.00 | 0.00 | 0.00 | 50 | 1011.8 |
| 20260501200346 | 16 | 322 | 16.1 | 33.8 | 0.00 | 0.00 | 0.00 | 49 | 1011.6 |